Home   Weather   Germany   Langenhagen   Past weeks
Flag for Germany

Past Weather in Langenhagen, Lower Saxony, Germany — Yesterday and Last 2 Weeks

Currently: 37 °F. Clear. (Weather station: Hannover, Germany). See more current weather

Past Weather in Langenhagen — Graph

°F

Langenhagen Temperature Yesterday

Maximum temperature yesterday: 41 °F (at 2:20 pm)
Minimum temperature yesterday: 32 °F (at 6:50 am)
Average temperature yesterday: 37 °F

High & Low Weather Summary for the Past Weeks

 TemperatureHumidityPressure
High66 °F (Feb 22, 1:50 pm)100% (Feb 26, 1:50 am)30.69 "Hg (Feb 26, 1:50 am)
Low25 °F (Mar 6, 3:20 am)32% (Feb 22, 2:50 pm)29.98 "Hg (Feb 21, 6:20 pm)
Average43 °F78%30.37 "Hg
* Reported Feb 21 6:20 pm — Mar 8 6:50 pm, Langenhagen. Weather by CustomWeather, © 2021

Note: Actual official high and low records may vary slightly from our data, if they occured in-between our weather recording intervals... More about our weather records

Langenhagen Weather History for the Previous 24 Hours

Scroll right to see more
 ConditionsComfort  
Time TempWeatherWind HumidityBarometerVisibility
6:50 pm
Mon, Mar 8
39 °FClear.2 mph48%30.18 "Hg10 mi
6:20 pm39 °FClear.2 mph48%30.18 "Hg10 mi
5:50 pm41 °FPassing clouds.5 mph42%30.18 "HgN/A
5:20 pm43 °FPassing clouds.6 mph39%30.18 "HgN/A
4:50 pm43 °FPassing clouds.6 mph39%30.18 "HgN/A
4:20 pm43 °FPassing clouds.5 mph39%30.18 "HgN/A
3:50 pm43 °FPassing clouds.5 mph42%30.18 "HgN/A
3:20 pm43 °FPassing clouds.6 mph39%30.18 "HgN/A
2:50 pm43 °FPassing clouds.8 mph39%30.18 "HgN/A
2:20 pm43 °FPassing clouds.5 mph36%30.21 "HgN/A
1:50 pm43 °FPassing clouds.7 mph36%30.21 "HgN/A
1:20 pm43 °FPassing clouds.7 mph39%30.21 "HgN/A
12:50 pm41 °FPassing clouds.6 mph42%30.21 "HgN/A
12:20 pm41 °FPassing clouds.7 mph42%30.21 "HgN/A
11:50 am41 °FPassing clouds.8 mph42%30.21 "HgN/A
11:20 am39 °FPassing clouds.6 mph56%30.21 "HgN/A
10:50 am39 °FPassing clouds.2 mph61%30.21 "HgN/A
10:20 am37 °FPassing clouds.5 mph70%30.21 "HgN/A
9:50 am36 °FPassing clouds.6 mph75%30.21 "HgN/A
9:20 am34 °FPassing clouds.5 mph81%30.21 "HgN/A
8:50 am32 °FSunny.3 mph87%30.21 "Hg10 mi
8:20 am30 °FSunny.1 mph93%30.21 "Hg10 mi
7:50 am28 °FChilly.1 mph93%30.21 "Hg4 mi
7:20 am28 °FChilly.1 mph93%30.18 "Hg5 mi
6:50 am27 °FChilly.1 mph100%30.18 "Hg5 mi
6:20 am27 °FChilly.1 mph93%30.18 "Hg4 mi
5:50 am30 °FChilly.1 mph93%30.15 "Hg5 mi
5:20 am30 °FClear.1 mph100%30.15 "Hg6 mi
4:50 am30 °FClear.2 mph100%30.15 "Hg10 mi
4:20 am32 °FClear.3 mph93%30.15 "Hg10 mi
3:50 am32 °FPassing clouds.3 mph93%30.15 "HgN/A
3:20 am34 °FPassing clouds.5 mph93%30.15 "HgN/A
2:50 am34 °FPassing clouds.5 mph93%30.15 "HgN/A
2:20 am34 °FPassing clouds.5 mph93%30.15 "HgN/A
1:50 am34 °FPassing clouds.6 mph93%30.15 "HgN/A
1:20 am36 °FPassing clouds.7 mph87%30.15 "HgN/A
12:50 am36 °FLight rain. Fog.10 mph100%30.12 "Hg3 mi
12:20 am37 °FLight rain. Fog.8 mph87%30.12 "Hg2 mi
11:50 pm
Sun, Mar 7
37 °FLight rain. Passing clouds.8 mph87%30.12 "Hg5 mi
11:20 pm37 °FLight rain. Passing clouds.9 mph81%30.12 "HgN/A
10:50 pm37 °FLight rain. Passing clouds.9 mph81%30.12 "HgN/A
10:20 pm37 °FLight rain. Partly cloudy.10 mph81%30.12 "HgN/A
9:50 pm37 °FClear.12 mph75%30.12 "Hg10 mi
9:20 pm37 °FClear.10 mph75%30.12 "Hg10 mi
8:50 pm37 °FClear.9 mph75%30.12 "Hg10 mi
8:20 pm37 °FClear.12 mph75%30.12 "Hg10 mi
Weather by CustomWeather, © 2021

See weather overview